New Haven, CT

7:00 PM EDT on October 16, 2017 (GMT -0400)
Tweed-New Haven

Weather History for KHVN - November, 2012

Change the Weather History Date:

Thursday, November 15, 2012

  Actual Average Record
Temperature  
Mean Temperature 38 °F -  
Max Temperature 45 °F 49 °F 68 °F (1973)
Min Temperature 32 °F 35 °F 24 °F (1996)
Degree Days  
Heating Degree Days 26    
Moisture  
Dew Point 26 °F    
Average Humidity 62    
Maximum Humidity 76    
Minimum Humidity 48    
Precipitation  
Precipitation 0.00 in - - ()
Sea Level Pressure  
Sea Level Pressure 30.39 in    
Wind  
Wind Speed 7 mph (NNE)    
Max Wind Speed 13 mph    
Max Gust Speed -    
Visibility 10 miles    
Events      
Averages and records for this station are not official NWS values.
T = Trace of Precipitation, MM = Missing Value Source: NWS Daily Summary

Daily Weather History Graph

Daily Weather History Graph

Search for Another Location

Airport or City:

Trip Planner

Search our weather history database for the weather conditions in past years. The results will help you decide how hot, cold, wet, or windy it might be!

Date:

Astronomy

Nov. 15, 2012 Rise Set
Actual Time 6:40 AM EST 4:31 PM EST
Civil Twilight 6:10 AM EST 5:01 PM EST
Nautical Twilight 5:37 AM EST 5:34 PM EST
Astronomical Twilight 5:04 AM EST 6:07 PM EST
Moon 8:33 AM EST (11/15) 6:19 PM EST (11/15)
Length of Visible Light 10h 51m
Length of Day
9h 51m
Waxing Crescent, 5% of the Moon is Illuminated
Nov 15
Waxing Crescent
Nov 20
First Quarter
Nov 28
Full
Dec 6
Last Quarter
Dec 13
New

Hourly Weather History & Observations

Time (EST) Temp. Windchill Dew Point Humidity Pressure Visibility Wind Dir Wind Speed Gust Speed Precip Events Conditions
12:53 AM 32.0 °F 24.8 °F 23.0 °F 69% 30.45 in 10.0 mi North 8.1 mph - N/A   Clear
1:53 AM 32.0 °F 26.4 °F 23.0 °F 69% 30.46 in 10.0 mi North 5.8 mph - N/A   Clear
2:53 AM 33.1 °F 24.9 °F 23.0 °F 66% 30.44 in 10.0 mi North 10.4 mph - N/A   Clear
3:53 AM 33.1 °F 24.9 °F 23.0 °F 66% 30.43 in 10.0 mi North 10.4 mph - N/A   Clear
4:53 AM 33.1 °F 25.5 °F 23.0 °F 66% 30.45 in 10.0 mi North 9.2 mph - N/A   Clear
5:53 AM 32.0 °F 25.6 °F 23.0 °F 69% 30.45 in 10.0 mi North 6.9 mph - N/A   Clear
6:53 AM 34.0 °F 26.0 °F 23.0 °F 64% 30.45 in 10.0 mi North 10.4 mph - N/A   Scattered Clouds
7:53 AM 36.0 °F 28.5 °F 24.1 °F 62% 30.47 in 10.0 mi NNE 10.4 mph - N/A   Mostly Cloudy
7:57 AM 35.6 °F 29.2 °F 24.8 °F 65% 30.47 in 10.0 mi NNE 8.1 mph - N/A   Mostly Cloudy
8:53 AM 39.0 °F 32.3 °F 27.0 °F 62% 30.45 in 10.0 mi NNE 10.4 mph - N/A   Mostly Cloudy
9:53 AM 39.0 °F 31.4 °F 27.0 °F 62% 30.44 in 10.0 mi NNE 12.7 mph - N/A   Mostly Cloudy
10:53 AM 41.0 °F 35.2 °F 28.0 °F 60% 30.43 in 10.0 mi North 9.2 mph - N/A   Mostly Cloudy
11:53 AM 42.1 °F 36.6 °F 27.0 °F 55% 30.39 in 10.0 mi NNE 9.2 mph - N/A   Mostly Cloudy
12:53 PM 45.0 °F 39.7 °F 27.0 °F 49% 30.36 in 10.0 mi North 10.4 mph - N/A   Mostly Cloudy
1:53 PM 45.0 °F 43.5 °F 26.1 °F 48% 30.35 in 10.0 mi NNE 3.5 mph - N/A   Mostly Cloudy
2:53 PM 45.0 °F 42.6 °F 26.1 °F 48% 30.35 in 10.0 mi NE 4.6 mph - N/A   Mostly Cloudy
3:53 PM 44.1 °F 40.1 °F 26.1 °F 49% 30.35 in 10.0 mi NNE 6.9 mph - N/A   Mostly Cloudy
4:53 PM 42.1 °F 39.2 °F 26.1 °F 53% 30.34 in 10.0 mi NE 4.6 mph - N/A   Overcast
5:53 PM 42.1 °F - 27.0 °F 55% 30.34 in 10.0 mi Calm Calm - N/A   Clear
6:53 PM 41.0 °F - 26.1 °F 55% 30.34 in 10.0 mi Calm Calm - N/A   Clear
7:53 PM 39.0 °F - 28.0 °F 65% 30.34 in 10.0 mi Calm Calm - N/A   Clear
8:53 PM 37.0 °F - 28.0 °F 70% 30.33 in 10.0 mi Calm Calm - N/A   Clear
9:53 PM 35.1 °F - 28.0 °F 76% 30.33 in 10.0 mi Calm Calm - N/A   Clear
10:53 PM 37.0 °F - 28.9 °F 73% 30.31 in 10.0 mi Calm Calm - N/A   Clear
11:53 PM 35.1 °F 31.0 °F 28.0 °F 76% 30.30 in 10.0 mi North 4.6 mph - N/A   Clear